Location: Arbon
(43.0005°N, 0.7472°E)
Time: 22:52:38
(UTC+00:00)

Explorer 7 - Pass Details

Date: 26 November 2020
Orbit: 484 x 678 km, 50.3° (Epoch: 26 January)

Event Time Altitude Azimuth Distance (km) Brightness Sun altitude
Rises 00:59:58 0° 183° (S) 2,938 - -62.9°
Reaches altitude 10° 01:03:40 10° 154° (SSE) 1,991 - -62.5°
Maximum altitude 01:05:31 12° 130° (SE) 1,819 - -62.2°
Drops below altitude 10° 01:07:21 10° 106° (ESE) 1,948 - -62.0°
Sets 01:10:51 0° 76° (ENE) 2,803 - -61.5°
